Theta_e
315 316 319 321 320 321 326 330 335 342 345 342 340 337 335 332 332 333 336 336 336 335 333 331 331 330 327 326 326 325 323 321 322 319 319 321 324 324 324 324 325 328 327
313 315 316 318 320 321 331 336 341 343 343 343 340 337 334 331 331 333 332 334 333 332 333 331 331 327 326 325 324 323 320 320 320 316 318 315 317 321 324 323 324 324 325
310 312 313 313 318 333 336 340 343 342 340 342 341 336 331 331 329 329 331 332 333 332 331 329 328 327 326 323 322 322 320 315 318 319 316 313 311 313 318 322 325 322 325
313 314 313 312 329 333 336 336 340 341 341 341 337 333 328 325 327 326 329 332 331 331 330 329 328 326 324 323 322 324 320 318 315 318 322 321 320 312 309 317 320 324 323
311 312 313 318 331 333 333 335 339 338 340 337 333 328 327 328 328 328 327 327 327 329 329 328 327 325 325 323 323 322 321 320 317 316 316 318 320 320 316 309 314 320 326
313 316 328 330 331 334 335 337 336 335 335 334 330 328 328 326 326 325 325 326 326 326 326 327 325 325 324 324 324 322 322 323 321 319 318 316 315 317 315 311 312 314 318
322 324 326 328 331 334 336 335 331 331 332 330 330 328 327 326 325 323 324 324 324 323 323 324 323 324 326 327 326 323 321 321 321 320 319 320 319 318 319 314 312 314 317
323 324 325 328 332 333 332 330 328 329 328 330 329 329 327 326 325 325 325 324 323 323 323 323 324 326 327 327 326 325 323 323 322 321 320 320 320 322 321 318 315 313 319
322 324 326 330 330 329 329 328 328 328 328 329 329 327 328 327 326 325 324 324 323 324 323 324 325 326 327 327 324 323 322 324 322 322 322 321 322 323 323 321 320 320 315
322 323 326 328 329 328 329 328 328 327 328 329 328 327 328 327 326 325 324 322 323 325 324 323 325 325 328 327 325 323 325 324 323 325 324 323 323 323 325 324 323 324 318
321 324 326 328 327 329 328 327 327 327 327 327 326 325 327 327 325 325 323 322 323 322 322 324 326 327 326 326 325 324 325 324 324 324 324 325 324 323 324 324 324 321 319
322 324 325 326 326 327 327 326 326 326 327 328 327 326 325 327 325 324 326 323 321 322 322 324 326 329 328 325 325 324 324 324 324 324 325 325 327 323 325 324 321 321 321
322 323 323 324 325 325 325 325 324 325 326 328 329 328 326 327 324 324 326 323 323 321 324 326 328 329 327 326 325 325 325 325 323 324 324 324 325 324 323 322 321 321 320
321 322 322 323 324 324 324 323 322 324 326 330 328 326 327 327 325 324 326 323 323 320 325 326 329 328 328 328 326 328 326 325 325 325 326 327 326 324 322 322 321 320 319
320 321 321 322 323 320 322 322 321 322 326 328 328 326 326 329 327 327 324 324 321 324 326 326 328 324 323 325 326 327 326 324 324 325 325 326 325 322 322 322 321 321 319
320 321 322 323 322 320 319 320 320 321 327 328 326 327 326 329 327 326 326 326 324 326 325 326 324 320 321 307 311 322 326 326 325 325 324 323 320 315 313 314 315 319 320
320 322 323 323 321 320 318 318 319 320 326 327 326 327 327 325 324 327 325 324 323 325 325 325 321 317 314 303 305 310 327 325 324 322 325 324 321 320 320 312 312 312 311
321 322 323 322 321 319 318 319 319 320 322 324 324 326 326 326 326 325 322 323 323 324 324 323 320 316 312 303 302 310 327 327 326 325 325 324 322 322 323 322 321 321 322
321 323 324 323 319 319 319 318 317 319 321 322 323 325 326 325 326 326 322 323 323 323 322 323 319 316 312 304 301 319 326 326 325 326 327 325 322 307 308 322 320 320 319
322 324 324 322 319 318 318 317 316 317 319 322 323 327 326 326 325 323 323 324 323 325 325 325 320 314 315 303 301 315 326 323 321 321 321 311 317 304 307 321 320 318 319
322 325 323 320 319 319 318 316 315 316 320 323 323 327 325 324 326 325 325 324 324 324 324 322 320 319 316 311 301 307 325 323 321 320 320 316 304 303 304 311 321 318 320
323 324 322 321 320 320 319 316 314 318 321 322 325 328 327 329 328 325 325 325 323 322 320 321 320 320 318 309 303 303 315 316 321 319 316 310 301 301 302 312 300 303 312
321 325 322 320 319 319 319 317 316 319 321 321 325 325 325 326 326 324 323 323 323 323 321 321 320 318 318 313 304 305 308 311 320 318 308 300 301 300 302 298 301 306 319
321 324 322 320 318 318 318 320 318 319 320 324 323 323 326 325 325 324 324 322 322 322 324 321 320 318 318 318 317 314 313 307 309 303 304 307 310 308 309 309 312 321 320
323 325 322 320 319 319 318 321 319 318 320 325 324 322 326 326 323 319 316 320 321 325 324 322 322 320 317 319 315 316 319 318 313 312 313 313 315 314 315 316 319 321 321
321 324 324 321 321 320 319 321 319 318 320 324 325 323 324 326 324 315 311 298 300 300 309 310 319 322 313 304 304 307 304 302 303 316 316 314 313 317 318 317 318 320 317
Wind_Speed
10 6 5 7 9 7 7 9 10 10 12 9 8 5 5 4 4 5 7 8 6 6 6 5 5 5 4 4 3 3 5 3 3 2 2 3 3 3 4 3 4 5 5
8 9 9 8 9 7 8 9 10 15 11 10 6 5 5 3 4 4 5 8 8 7 5 5 5 4 2 4 3 4 3 3 4 4 2 2 3 2 4 3 4 6 4
12 12 10 9 6 8 9 10 11 12 9 10 7 5 5 4 3 2 3 5 7 6 6 5 4 3 3 3 4 4 5 3 3 5 4 2 3 1 2 5 4 5 3
18 15 11 8 9 8 9 10 10 11 9 11 8 10 5 5 3 3 3 4 7 6 7 5 5 4 3 3 3 3 3 3 4 1 4 2 4 3 1 2 3 4 4
13 12 11 7 11 11 9 8 10 9 9 9 8 7 7 4 4 5 8 7 5 6 4 5 4 4 3 3 4 3 4 3 3 3 2 3 1 1 2 2 1 1 3
4 6 15 16 12 11 10 10 10 7 8 9 9 9 9 8 8 5 5 4 3 3 3 4 4 4 3 3 3 4 5 5 5 4 3 3 4 3 3 2 2 3 2
11 12 16 15 14 13 12 9 10 8 9 10 9 9 9 9 8 7 5 6 3 2 3 2 4 3 3 3 3 2 4 4 4 6 4 4 3 4 3 4 3 3 1
13 13 12 12 14 14 11 12 10 9 9 9 9 8 8 5 4 5 5 4 4 4 4 3 4 3 3 3 1 1 2 3 3 3 4 4 4 4 4 4 4 3 3
13 15 12 12 13 11 11 11 9 9 9 9 7 7 6 7 7 6 5 4 5 4 4 5 4 3 3 3 2 2 3 3 2 3 4 3 4 3 4 3 3 5 4
15 12 13 13 11 10 11 9 9 9 8 9 7 7 8 7 6 5 5 7 5 4 5 5 5 5 4 4 4 3 3 3 3 1 4 3 2 2 2 3 3 3 5
15 14 14 13 10 12 9 8 8 8 8 8 6 7 7 7 6 5 6 6 5 5 5 5 5 5 2 3 2 3 3 4 4 3 2 3 5 3 2 4 5 6 7
16 16 16 13 13 10 10 8 7 8 7 7 7 7 7 7 6 4 7 6 4 4 4 6 0 4 4 4 2 2 1 1 3 5 4 2 4 5 4 7 9 9 9
17 16 14 13 11 10 8 8 7 8 7 9 8 7 7 7 6 5 6 6 4 4 2 5 5 5 4 3 2 3 5 4 4 3 2 5 6 5 8 10 10 10 10
17 15 13 12 11 10 9 8 7 7 8 10 9 7 7 7 7 6 5 5 5 3 4 5 5 5 4 3 3 4 5 6 4 5 6 6 6 8 11 10 12 13 12
17 15 14 12 11 9 10 7 7 7 9 10 8 7 6 6 7 6 5 6 4 4 6 5 6 7 6 4 4 4 5 5 6 6 5 6 10 12 11 10 11 13 12
17 15 15 15 12 11 10 8 8 7 12 10 10 8 6 7 6 5 4 5 5 5 5 6 7 6 4 6 8 5 5 5 6 6 8 10 16 13 14 13 10 11 17
17 16 15 15 12 12 9 8 8 7 12 10 8 9 8 8 6 6 6 6 5 4 5 7 7 6 5 6 8 7 4 5 5 6 8 10 10 13 12 16 17 14 13
16 15 14 12 13 8 9 8 8 7 8 10 9 9 9 7 6 6 5 4 3 3 4 6 6 6 4 6 8 4 5 5 6 6 9 12 12 12 13 14 14 10 10
12 14 15 14 11 13 9 10 8 7 7 9 10 9 10 9 7 6 7 4 5 4 3 6 6 6 5 7 9 5 5 7 7 6 9 11 12 12 15 14 14 12 9
11 15 15 14 14 11 10 10 8 7 7 10 9 12 10 10 8 7 6 3 3 5 5 5 6 7 6 6 7 5 5 7 6 6 9 11 12 14 14 14 13 12 10
4 17 16 15 14 12 10 9 8 7 8 10 8 10 7 8 9 7 4 4 4 5 5 7 5 6 6 3 6 5 5 6 6 6 7 6 15 14 12 12 11 12 10
8 16 14 13 13 12 10 8 8 7 8 8 10 11 11 8 7 8 5 6 6 6 6 6 5 4 5 5 5 9 8 7 7 7 5 5 11 12 11 8 13 15 10
4 12 14 13 12 11 10 9 9 6 7 8 14 12 10 8 6 7 7 5 6 6 6 5 4 4 3 3 4 6 10 10 7 6 8 12 14 14 8 14 16 12 7
2 6 13 14 12 9 9 8 8 7 8 11 13 9 11 7 6 4 5 5 5 5 6 5 5 4 4 3 3 4 7 12 8 9 7 7 8 7 9 9 10 8 6
11 11 12 12 13 12 8 7 8 7 8 12 11 8 10 10 6 3 2 4 5 9 8 6 7 7 5 4 6 7 7 7 8 8 4 4 4 5 7 7 8 8 7
12 10 8 11 14 14 10 8 8 8 9 12 10 7 8 8 6 5 4 10 8 3 13 12 10 5 10 14 12 11 12 14 13 4 4 4 4 7 8 8 8 6 6
Wind_Direction
249 249 250 241 223 228 205 188 144 155 146 151 153 150 142 136 126 140 151 153 158 159 160 170 155 169 190 203 218 196 221 261 208 117 269 288 261 253 222 210 224 239 226
251 249 254 238 220 226 196 158 152 151 155 160 147 132 130 137 136 146 145 150 152 161 155 159 162 174 179 234 239 204 200 215 169 162 148 211 319 296 226 222 232 240 242
249 249 246 226 208 155 149 139 138 140 129 132 116 101 90 77 81 109 141 155 143 118 129 151 151 170 189 226 231 203 197 217 224 186 145 132 234 214 248 230 221 207 216
249 243 236 238 146 138 116 106 116 122 120 133 124 138 138 142 162 137 130 123 105 118 123 143 157 186 186 194 196 202 199 160 201 220 230 237 157 186 352 302 229 197 197
237 228 210 157 123 118 112 109 112 117 122 131 128 128 115 134 116 118 109 113 107 113 140 157 165 167 178 201 193 205 197 189 170 175 152 223 334 295 159 235 252 21 209
244 108 110 115 111 108 106 114 115 107 114 119 119 121 127 126 122 118 116 128 134 146 142 171 176 179 180 208 213 200 207 205 198 191 202 164 163 198 171 195 205 173 296
80 98 113 120 117 115 115 110 109 106 107 109 97 100 99 110 118 124 129 128 125 126 195 197 142 170 180 192 218 211 218 208 188 195 196 191 194 182 163 157 214 141 103
107 104 108 113 115 116 111 117 111 104 106 101 102 103 110 115 111 113 128 140 151 167 178 155 145 177 194 211 229 196 220 245 219 187 192 187 203 187 173 178 150 90 83
121 123 118 117 118 122 117 125 117 113 110 109 107 109 88 90 109 110 120 127 139 153 171 167 167 207 220 194 222 240 239 226 240 207 199 195 205 165 184 184 154 137 135
124 122 119 121 126 117 125 116 114 118 122 118 119 119 120 110 112 121 138 136 150 161 168 186 196 218 230 220 192 220 231 212 265 252 226 212 193 163 169 171 132 98 123
133 125 124 129 121 127 125 126 123 124 125 125 140 131 139 136 135 128 124 125 133 148 177 207 212 224 232 181 170 224 209 218 214 278 205 209 137 148 110 109 94 91 114
128 126 131 126 130 129 128 128 128 130 135 139 133 132 129 120 115 116 127 142 157 189 215 233 268 130 101 84 94 332 188 252 228 225 233 139 139 113 73 87 102 112 108
126 130 129 129 133 127 126 132 134 151 141 144 141 131 142 123 137 156 142 159 185 218 304 130 126 99 102 108 103 43 65 29 52 24 57 143 112 101 110 112 111 113 113
134 137 133 136 134 140 138 143 152 164 149 152 142 140 145 143 149 160 167 162 197 206 120 123 115 104 84 73 59 56 64 71 52 50 46 112 114 119 117 116 125 124 119
140 143 140 140 143 142 148 151 157 169 151 138 154 141 141 138 140 167 179 185 183 163 116 138 97 80 67 38 41 88 87 89 77 58 58 70 108 101 114 127 132 129 128
150 145 144 145 148 147 153 152 157 169 143 145 142 142 146 133 138 154 153 126 138 136 129 105 103 93 76 7 56 53 86 75 70 67 89 107 95 86 94 91 96 134 135
154 151 151 151 147 150 149 150 148 147 141 142 135 139 130 138 147 143 131 133 140 118 117 107 111 98 86 29 34 28 113 102 88 85 104 104 108 108 102 91 85 81 73
158 153 151 145 147 142 137 133 135 140 135 132 133 133 137 144 135 134 135 113 107 142 134 120 110 108 67 26 11 52 113 107 91 98 116 117 122 123 116 111 106 102 108
161 151 147 145 136 140 136 132 137 149 137 137 148 148 150 142 142 138 145 145 118 102 108 128 126 122 85 21 19 79 95 96 94 91 113 125 129 130 129 121 118 109 92
150 140 140 139 134 145 132 131 151 161 150 151 160 151 152 147 139 146 155 156 148 161 150 122 134 125 112 45 28 61 105 97 95 84 100 111 131 132 131 130 130 127 130
123 137 140 143 144 144 131 140 157 173 166 158 141 146 131 130 145 146 147 136 128 121 125 119 126 114 114 57 40 94 109 118 112 112 116 124 134 134 131 135 146 141 137
122 139 137 141 143 142 133 145 163 195 152 148 125 132 136 140 139 141 138 128 124 112 114 115 106 110 112 104 73 93 110 121 118 123 112 117 129 126 125 132 121 124 127
100 141 139 137 144 143 142 145 189 173 148 126 135 143 139 137 140 138 131 135 130 132 135 138 134 137 128 110 99 96 130 117 99 114 129 137 140 132 108 130 134 137 129
279 139 144 144 147 146 147 158 175 171 140 131 147 141 136 136 147 150 149 144 143 146 159 160 151 148 142 148 132 115 106 103 95 108 116 126 126 105 122 129 147 148 153
348 163 158 151 152 152 156 158 174 159 141 141 152 146 145 150 164 129 171 170 179 177 173 169 160 153 160 189 163 138 131 132 134 115 100 108 119 116 144 157 170 174 177
6 34 154 156 158 157 162 168 174 151 149 148 152 156 146 162 160 143 102 25 30 223 169 159 162 171 156 159 163 144 137 134 143 108 133 144 149 153 163 171 189 202 185